Погода в Пассикуде

Шри-Ланка     7°55′48″N   81°33′32″E
темп.,
°C
ветер,
м/с
пор.,
м/с
влажн.,
%
обл.,
%
осадки,
мм/ч
давл.,
гПа
погр.,
м
12 августа, пт
пт1223:30+27юз2374100 0.0 1008201
02:30+26зюз3574100 0.0 1006243
05:30+26зюз497447 0.0 1007386
08:30+30зюз7106125 0.0 1008920
11:30+33з694899 0.0 10071086
14:30+35з584470 0.0 10041569
17:30+31ююв155899 0.2 1005586
20:30+29юз1368100 0.4 100886
13 августа, сб
сб1323:30+27зсз3567100 0.4 1008263
02:30+27зюз466899 0.0 1006213
05:30+26юз2371100 0.0 1006128
08:30+29юз336187 0.0 1008435
11:30+33всв134899 0.0 10071022
14:30+30в7664100 0.0 1004457
17:30+28вюв4574100 0.9 1006216
20:30+27юв3482100 0.2 1008178
14 августа, вс
вс1423:30+27ю1183100 0.2 100791
02:30+26з2283100 0.0 100584
05:30+26зюз2282100 0.0 100688
08:30+28зсз2270100 0.0 1008317
11:30+31всв2257100 0.0 1008842
14:30+31в5458100 0.0 1005811
17:30+29вюв5675100 0.3 1006356
20:30+28юв1279100 2.4 100819
15 августа, пн
пн1523:30+26з228198 2.5 100858
02:30+25з2281100 0.0 100676
05:30+25зсз228185 0.0 100789
08:30+28юз016863 0.0 1009311
11:30+30всв426298 0.0 1008867
14:30+30всв5467100 0.0 1006548
17:30+29в5575100 0.0 1007516
20:30+27юв4683100 0.7 1009327
16 августа, вт
вт1623:30+26юв128590 1.3 1009138
02:30+26зсз228734 0.6 100783
05:30+25зсз45915 0.6 1008181
08:30+28зсз237525 0.0 1010376
11:30+31всв32615 0.0 1009889
14:30+30всв64670 0.0 1006545
17:30+28в457836 0.0 1007646
20:30+27вюв238339 0.9 1009314